[[{"header":{"parameterUnit":"m.s-1","parameterCategory":1,"la1":30.2991,"la2":30.254,"lo1":-89.0895,"lo2":-89.0444,"dy":0.0017,"dx":0.0017,"nx":28,"ny":28,"refTime":"2024-04-03T21:00:00:Z","depth":0,"parameterNumber":2,"parameterNumberName":"U-component_of_WINDS"},"data":[0,0,0,0,0,0,0,0,0,0,0,0,0,0,0,0,0,0,0,0,0,0,0,0,0,0,0,0,0,0,0,0,0,0,0,0,0,0,0,0,0,0,0,0,0,0,0,0,0,0,0,0,0,0,0,0,0,0,3.8158,3.8159,0,3.8255,3.8256,3.8257,3.8208,3.8205,3.8203,3.82,3.8299,3.8304,3.8309,0,0,0,0,0,0,0,0,0,0,0,0,0,3.7932,3.7937,3.8158,3.8159,3.8161,3.8255,3.8256,3.8257,3.8208,3.8205,3.8202,3.8199,3.8297,3.8303,3.8309,0,0,0,0,0,0,0,0,0,0,0,0,0,3.803,3.7938,3.8158,3.8147,3.8147,3.8254,3.8256,3.8258,3.8209,3.8205,3.8201,3.8198,3.8295,3.8303,3.831,3.8433,0,0,3.8333,3.8336,0,0,0,0,0,0,0,0,3.8024,3.8038,3.8148,3.8148,3.8149,3.8215,3.8212,3.8316,3.821,3.8186,3.82,3.8196,3.8274,3.8283,3.831,3.8437,3.8441,3.8334,3.8338,3.8341,3.8343,0,0,0,0,0,0,0,3.8018,3.8034,3.8196,3.8149,3.815,3.8138,3.8148,3.8232,3.825,3.8187,3.8184,3.8196,3.8274,3.8302,3.8312,3.8443,3.8333,3.834,3.8345,3.8348,3.8678,3.8682,0,0,0,0,0,0,3.8011,3.8028,3.8193,3.8199,3.8076,3.8145,3.8156,3.8198,3.8249,3.8253,3.8199,3.8193,3.8292,3.8303,3.8315,3.8463,3.8341,3.8348,3.8353,3.8674,3.8679,3.8683,0,0,0,0,0,0,3.8007,3.8026,3.8189,3.8113,3.8133,3.8153,3.82,3.8202,3.823,3.8258,3.8261,3.8225,3.8289,3.8304,3.8404,3.8466,3.8352,3.8358,3.8669,3.8675,3.8681,3.8759,0,0,0,0,0,0,3.8,3.8025,3.8072,3.8114,3.8137,3.8277,3.8204,3.8206,3.8244,3.8237,3.8283,3.8287,3.8287,3.8393,3.8412,3.8474,3.8364,3.8663,3.8671,3.8679,3.8751,3.8768,3.8782,0,0,0,0,0,3.7992,3.8089,3.8074,3.8094,3.8196,3.8281,3.8294,3.8291,3.8249,3.8296,3.8314,3.8286,3.8456,3.8404,3.8424,3.849,3.8659,3.8669,3.8678,3.8745,3.8764,3.8781,0,0,0,0,0,0,3.8053,3.8095,3.8078,3.8192,3.8233,3.8272,3.8331,3.8312,3.8366,3.8358,3.8353,3.8364,3.8468,3.8488,3.843,3.8612,3.8551,3.8565,3.8594,3.8613,3.8628,3.8621,3.8371,0,0,0,0,0,3.8079,3.8145,3.8178,3.8275,3.8297,3.8311,3.8348,3.8343,3.8385,3.8402,3.8427,3.847,3.8533,3.8574,3.8633,3.8754,3.8764,3.8809,3.8824,3.8837,3.8849,3.8916,3.8937,3.8715,3.8715,3.8715,0,0,3.8135,3.8166,3.8207,3.8288,3.8319,3.8388,3.8326,3.84,3.8451,3.8413,3.8509,3.853,3.8577,3.8688,3.8738,3.8708,3.8913,3.8849,3.8859,3.8864,3.8928,3.8949,3.8967,3.8721,3.872,3.8719,0,0,3.8271,3.8301,3.8385,3.8418,3.8467,3.8476,3.8496,3.8539,3.8551,3.8647,3.8621,3.8682,3.879,3.8825,3.8857,3.9008,3.8985,3.9028,3.9107,3.9172,3.9189,3.9205,3.926,3.9279,3.904,3.904,3.904,0,3.8333,3.8435,3.8431,3.8508,3.8545,3.8515,3.8601,3.8633,3.8699,3.8725,3.8691,3.8828,3.8857,3.8977,3.9014,3.9041,3.9064,3.9022,3.9187,3.9203,3.9217,3.9269,3.929,3.9045,3.9045,3.9044,3.9044,0,3.851,3.8581,3.8644,3.8709,3.8752,3.8834,3.8843,3.8888,3.888,3.8892,3.8992,3.9026,3.9093,3.9121,3.9113,3.924,3.922,3.9187,3.9126,3.9243,3.9292,3.9312,3.9052,3.905,3.9049,3.9048,0,0,3.8686,3.8749,3.8772,3.8801,3.8853,3.8908,3.8989,3.9054,3.9094,3.914,3.9208,3.9301,3.9271,3.9308,3.9304,3.9361,3.948,3.9321,3.9322,3.935,3.9623,3.9648,3.9672,3.9465,3.9469,3.9472,3.962,0,3.8826,3.8967,3.8967,3.9097,3.9163,3.9136,3.9206,3.9246,3.9261,3.932,3.9336,3.9402,3.9357,3.9379,3.9435,3.9454,3.9535,3.9443,3.9529,3.9532,3.9518,3.9697,3.9723,3.9861,3.9639,3.9642,3.9644,0,3.9008,3.9061,3.9198,3.9242,3.927,3.9333,3.9394,3.945,3.9495,3.9502,3.9544,3.9532,3.9614,3.9551,3.9665,3.9603,3.9638,3.9653,3.9658,3.9666,3.9595,3.971,3.9905,3.9926,3.9674,3.9672,3.967,0,3.9123,3.9229,3.9325,3.9351,3.9405,3.945,3.9474,3.9516,3.9556,3.9609,3.9635,3.9697,3.9731,3.978,3.9785,3.9739,3.9901,3.9838,3.9909,3.991,3.9945,3.9942,4.0148,3.9967,3.9967,3.9966,3.9966,0,3.928,3.9365,3.9378,3.9437,3.9532,3.9531,3.9625,3.9646,3.9683,3.9746,3.9727,3.9787,3.979,3.9851,3.9856,3.9951,3.9966,3.9974,3.9975,3.9976,3.9976,3.9999,3.999,3.9972,3.9971,3.997,3.9969,0,3.9424,3.9436,3.954,3.9582,3.9595,3.9663,3.9699,3.9756,3.977,3.985,3.9869,3.989,3.9961,3.9971,4.0055,4.0058,4.0172,4.0162,4.0157,4.0156,4.0227,4.022,4.0455,4.0486,4.0285,4.0287,4.0288,0,3.9523,3.9588,3.9638,3.9679,3.9706,3.9772,3.9813,3.9816,3.9859,3.9917,3.9967,4.0036,4.0092,4.0208,4.0231,4.0295,4.0287,4.0365,4.0296,4.0297,4.0289,4.0285,4.0292,4.0378,4.038,4.0382,4.0383,0,3.9698,3.9702,3.9761,3.9824,3.9874,3.9923,3.9969,4.0004,4.0012,4.0063,4.0136,4.0179,4.0265,4.0335,4.0399,4.0424,4.0406,4.0405,4.0425,4.0427,4.0422,4.0427,4.0193,4.04,4.0398,4.0397,4.0396,4.0395,3.9824,3.9881,3.9925,3.9993,4.0028,4.0072,4.0128,4.0149,4.021,4.028,4.0278,4.0359,4.0404,4.0488,4.0518,4.0582,4.0556,4.0585,4.0592,4.06,4.0607,4.0412,4.0593,4.0593,4.0592,4.0592,4.0592,0,3.9998,4.0026,4.0088,4.0154,4.0208,4.0186,4.0237,4.0283,4.0354,4.0398,4.0454,4.0539,4.0607,4.0636,4.0702,4.0748,4.0741,4.0765,4.0762,4.0769,4.0626,4.0602,4.077,4.077,4.077,4.077,4.077,4.077,4.0095,4.0191,4.02,4.0313,4.034,4.0419,4.045,4.0491,4.0526,4.0622,4.0678,4.0697,4.0735,4.0805,4.0867,4.0873,4.0899,4.0927,4.0931,4.0796,4.0778,4.0761,4.0739,4.0933,4.0933,4.1068,4.107,4.1071]},{"header":{"parameterUnit":"m.s-1","parameterCategory":1,"la1":30.2991,"la2":30.254,"lo1":-89.0895,"lo2":-89.0444,"dy":0.0017,"dx":0.0017,"nx":28,"ny":28,"refTime":"2024-04-03T21:00:00:Z","depth":0,"parameterNumber":3,"parameterNumberName":"V-component_of_WINDS"},"data":[0,0,0,0,0,0,0,0,0,0,0,0,0,0,0,0,0,0,0,0,0,0,0,0,0,0,0,0,0,0,0,0,0,0,0,0,0,0,0,0,0,0,0,0,0,0,0,0,0,0,0,0,0,0,0,0,0,0,-4.8702,-4.8704,0,-4.8923,-4.8925,-4.8928,-4.8905,-4.8901,-4.8898,-4.8895,-4.9122,-4.9131,-4.9141,0,0,0,0,0,0,0,0,0,0,0,0,0,-4.8262,-4.827,-4.8701,-4.8704,-4.8707,-4.8922,-4.8925,-4.8928,-4.8905,-4.8901,-4.8897,-4.8893,-4.9119,-4.913,-4.9141,0,0,0,0,0,0,0,0,0,0,0,0,0,-4.8465,-4.8273,-4.8701,-4.8721,-4.8726,-4.8922,-4.8925,-4.8929,-4.8906,-4.8901,-4.8896,-4.8891,-4.9116,-4.9129,-4.9143,-4.9333,0,0,-4.9185,-4.9192,0,0,0,0,0,0,0,0,-4.8454,-4.8481,-4.8716,-4.872,-4.8725,-4.8881,-4.8854,-4.9065,-4.8908,-4.8838,-4.8894,-4.8888,-4.9046,-4.9066,-4.9118,-4.9344,-4.9353,-4.9187,-4.9195,-4.9201,-4.9205,0,0,0,0,0,0,0,-4.844,-4.8472,-4.8789,-4.8719,-4.8725,-4.872,-4.8744,-4.8894,-4.8969,-4.8843,-4.8842,-4.8869,-4.9048,-4.9105,-4.9124,-4.9357,-4.9186,-4.9199,-4.9207,-4.9213,-4.9751,-4.9757,0,0,0,0,0,0,-4.842,-4.846,-4.8782,-4.8796,-4.8574,-4.8733,-4.8758,-4.8836,-4.8967,-4.8982,-4.8873,-4.8867,-4.9084,-4.9107,-4.9132,-4.9365,-4.9201,-4.9214,-4.9222,-4.9746,-4.9753,-4.9759,0,0,0,0,0,0,-4.8411,-4.8449,-4.8773,-4.8628,-4.8668,-4.8746,-4.8833,-4.8843,-4.89,-4.8989,-4.9002,-4.8918,-4.9081,-4.9112,-4.9284,-4.9372,-4.922,-4.9233,-4.9739,-4.9748,-4.9756,-4.9831,0,0,0,0,0,0,-4.8398,-4.8446,-4.8518,-4.8629,-4.8676,-4.8921,-4.8839,-4.8851,-4.8924,-4.8919,-4.9034,-4.9049,-4.9079,-4.9263,-4.9297,-4.9389,-4.9244,-4.9731,-4.9743,-4.9753,-4.9821,-4.9841,-4.9859,0,0,0,0,0,-4.8383,-4.8531,-4.8522,-4.8561,-4.8768,-4.8926,-4.8953,-4.8984,-4.8931,-4.9006,-4.9063,-4.9045,-4.9356,-4.9281,-4.9319,-4.9416,-4.9726,-4.9739,-4.9752,-4.9812,-4.9837,-4.9858,0,0,0,0,0,0,-4.8428,-4.8545,-4.8537,-4.8725,-4.8816,-4.8922,-4.9016,-4.9009,-4.9117,-4.9107,-4.9142,-4.9168,-4.9342,-4.9396,-4.9309,-4.9608,-4.9534,-4.9556,-4.9567,-4.9591,-4.9609,-4.9594,-4.9256,0,0,0,0,0,-4.846,-4.8578,-4.8674,-4.8831,-4.8876,-4.8939,-4.9008,-4.9025,-4.912,-4.9158,-4.9228,-4.9322,-4.9441,-4.9518,-4.9633,-4.9828,-4.9854,-4.9914,-4.9933,-4.9948,-4.9967,-5.0076,-5.0104,-4.9803,-4.9803,-4.9803,0,0,-4.8527,-4.8606,-4.8678,-4.8842,-4.8914,-4.9036,-4.8971,-4.9102,-4.9194,-4.9178,-4.9345,-4.94,-4.9506,-4.9691,-4.9776,-4.9742,-5.0055,-4.9965,-4.9976,-4.9987,-5.0093,-5.0121,-5.0146,-4.9812,-4.9811,-4.9809,0,0,-4.8713,-4.8783,-4.8922,-4.8996,-4.9106,-4.9146,-4.918,-4.9287,-4.9323,-4.949,-4.9482,-4.9591,-4.9795,-4.9872,-4.9938,-5.0154,-5.0142,-5.019,-5.0289,-5.0395,-5.0419,-5.044,-5.0519,-5.0547,-5.0208,-5.0208,-5.0208,0,-4.8783,-4.8965,-4.8995,-4.9128,-4.9201,-4.9193,-4.9335,-4.9405,-4.9547,-4.9598,-4.9557,-4.9814,-4.9885,-5.0088,-5.0141,-5.0194,-5.0235,-5.0178,-5.0413,-5.0435,-5.0455,-5.0531,-5.056,-5.0214,-5.0213,-5.0212,-5.0212,0,-4.9047,-4.9174,-4.9273,-4.9411,-4.9495,-4.9631,-4.9683,-4.9764,-4.9773,-4.9819,-4.999,-5.0076,-5.0208,-5.0257,-5.0267,-5.0463,-5.0439,-5.0405,-5.0332,-5.0489,-5.056,-5.0589,-5.0221,-5.0219,-5.0218,-5.0216,0,0,-4.9268,-4.942,-4.9456,-4.9519,-4.964,-4.9739,-4.9876,-5.0005,-5.0075,-5.0173,-5.0291,-5.0464,-5.0434,-5.0509,-5.0528,-5.062,-5.0788,-5.0576,-5.0579,-5.0614,-5.1012,-5.1037,-5.107,-5.0781,-5.0786,-5.0791,-5.1003,0,-4.9467,-4.9709,-4.974,-4.9955,-5.0074,-5.0068,-5.0187,-5.0275,-5.0321,-5.0429,-5.048,-5.0603,-5.0553,-5.0599,-5.069,-5.0748,-5.0869,-5.0733,-5.0891,-5.0897,-5.0867,-5.1108,-5.1135,-5.1332,-5.1031,-5.1036,-5.104,0,-4.9731,-4.9837,-5.0064,-5.017,-5.0221,-5.0328,-5.045,-5.0552,-5.0652,-5.0679,-5.0763,-5.0771,-5.0914,-5.0833,-5.1032,-5.0939,-5.1005,-5.1044,-5.1052,-5.107,-5.0979,-5.1133,-5.1395,-5.1425,-5.1084,-5.108,-5.1077,0,-4.9872,-5.0071,-5.0233,-5.0287,-5.0414,-5.0489,-5.0546,-5.064,-5.0717,-5.0823,-5.0873,-5.0995,-5.1062,-5.1156,-5.1197,-5.1134,-5.1394,-5.1316,-5.1422,-5.1421,-5.1478,-5.1474,-5.1756,-5.1518,-5.1517,-5.1517,-5.1516,0,-5.0092,-5.0231,-5.0298,-5.0398,-5.0555,-5.0589,-5.0744,-5.0798,-5.0882,-5.0993,-5.0995,-5.1099,-5.1146,-5.1258,-5.129,-5.1451,-5.1481,-5.1508,-5.1515,-5.1509,-5.1506,-5.1554,-5.1542,-5.1525,-5.1523,-5.1521,-5.152,0,-5.0276,-5.0326,-5.0503,-5.0609,-5.0638,-5.075,-5.0841,-5.0938,-5.0983,-5.1124,-5.1159,-5.123,-5.1362,-5.1411,-5.1572,-5.1594,-5.178,-5.1775,-5.1747,-5.1749,-5.1853,-5.1843,-5.2177,-5.2223,-5.1952,-5.1955,-5.1957,0,-5.0414,-5.0522,-5.0639,-5.0713,-5.0773,-5.0892,-5.097,-5.1008,-5.1089,-5.1212,-5.1295,-5.1426,-5.1534,-5.1745,-5.1812,-5.1935,-5.1935,-5.2043,-5.1953,-5.1944,-5.1939,-5.1933,-5.1945,-5.206,-5.2063,-5.2065,-5.2067,0,-5.0654,-5.0674,-5.0786,-5.0907,-5.1,-5.1097,-5.1192,-5.1253,-5.1305,-5.1396,-5.1531,-5.1615,-5.1779,-5.1911,-5.2038,-5.2096,-5.2092,-5.2095,-5.2126,-5.2122,-5.2102,-5.2116,-5.1795,-5.2087,-5.2085,-5.2084,-5.2083,-5.2082,-5.0822,-5.0917,-5.1015,-5.114,-5.1215,-5.1304,-5.1401,-5.1458,-5.1571,-5.1708,-5.1723,-5.1869,-5.1968,-5.2138,-5.2202,-5.2318,-5.2288,-5.2333,-5.2345,-5.2356,-5.2365,-5.2081,-5.234,-5.234,-5.2339,-5.2339,-5.2339,0,-5.1064,-5.1126,-5.1241,-5.1373,-5.1472,-5.1457,-5.1561,-5.1646,-5.1774,-5.1865,-5.1971,-5.2127,-5.2254,-5.2331,-5.2459,-5.2537,-5.2538,-5.257,-5.2565,-5.2579,-5.2382,-5.2343,-5.2567,-5.2567,-5.2566,-5.2566,-5.2566,-5.2566,-5.1201,-5.1364,-5.1395,-5.1595,-5.1657,-5.1799,-5.186,-5.1943,-5.2016,-5.219,-5.2296,-5.2345,-5.2431,-5.2566,-5.2683,-5.2702,-5.275,-5.2785,-5.2802,-5.2616,-5.2593,-5.2571,-5.2534,-5.2794,-5.2794,-5.299,-5.2991,-5.2993]}]]